Mound City, IL

5:48 AM CST on February 09, 2016 (GMT -0600)
Cairo Regional

Weather History for KCIR - April, 2012

Change the Weather History Date:

Monday, April 30, 2012

  Actual Average (KPAH) Record (KPAH)
Temperature  
Mean Temperature 76 °F 63 °F  
Max Temperature 86 °F 74 °F 88 °F (2007)
Min Temperature 66 °F 51 °F 35 °F (1969)
Degree Days  
Heating Degree Days 0 4  
Month to date heating degree days 244  
Since 1 July heating degree days 4064  
Cooling Degree Days 11 2  
Month to date cooling degree days 35  
Year to date cooling degree days 42  
Growing Degree Days 26 (Base 50)    
Moisture  
Dew Point 62 °F    
Average Humidity 64    
Maximum Humidity 83    
Minimum Humidity 45    
Precipitation  
Precipitation 0.00 in 0.17 in 2.14 in (1983)
Month to date precipitation 4.76  
Year to date precipitation 16.28  
Snow  
Snow 0.00 in 0.00 in T in (2006)
Month to date snowfall T  
Since 1 July snowfall 9.1  
Snow Depth -    
Sea Level Pressure  
Sea Level Pressure 29.99 in    
Wind  
Wind Speed 7 mph (SSW)    
Max Wind Speed 18 mph    
Max Gust Speed 29 mph    
Visibility 10 miles    
Events Thunderstorm    
T = Trace of Precipitation, MM = Missing Value Source: NWS Daily Summary

Daily Weather History Graph

Daily Weather History Graph

Search for Another Location

Airport or City:

Trip Planner

Search our weather history database for the weather conditions in past years. The results will help you decide how hot, cold, wet, or windy it might be!

Date:

Astronomy

Apr. 30, 2012 Rise Set
Actual Time 6:03 AM CDT 7:45 PM CDT
Civil Twilight 5:35 AM CDT 8:13 PM CDT
Nautical Twilight 5:01 AM CDT 8:47 PM CDT
Astronomical Twilight 4:25 AM CDT 9:23 PM CDT
Moon 1:50 PM CDT (4/30) 2:18 AM CDT (4/30)
Length of Visible Light 14h 38m
Length of Day
13h 42m
Waxing Gibbous, 64% of the Moon is Illuminated
Apr 30
Waxing Gibbous
May 5
Full
May 12
Last Quarter
May 20
New
May 28
First Quarter

Hourly Weather History & Observations

Time (CDT) Temp. Heat Index Dew Point Humidity Pressure Visibility Wind Dir Wind Speed Gust Speed Precip Events Conditions
12:15 AM 71.6 °F - 59.0 °F 64% 30.00 in 10.0 mi South 5.8 mph - N/A   Clear
12:35 AM 71.6 °F - 59.0 °F 64% 30.01 in 10.0 mi South 3.5 mph - N/A   Clear
12:55 AM 69.8 °F - 59.0 °F 68% 30.02 in 10.0 mi Calm Calm - N/A   Clear
1:15 AM 71.6 °F - 59.0 °F 64% 30.01 in 10.0 mi SSE 3.5 mph - N/A   Clear
1:35 AM 69.8 °F - 59.0 °F 68% 30.01 in 10.0 mi SSE 4.6 mph - N/A   Clear
1:55 AM 68.0 °F - 59.0 °F 73% 30.00 in 10.0 mi SSE 5.8 mph - N/A   Clear
2:15 AM 69.8 °F - 60.8 °F 73% 30.01 in 10.0 mi South 3.5 mph - N/A   Clear
2:35 AM 69.8 °F - 59.0 °F 68% 30.01 in 10.0 mi SSE 4.6 mph - N/A   Clear
2:55 AM 69.8 °F - 60.8 °F 73% 30.00 in 10.0 mi SSE 4.6 mph - N/A   Clear
3:15 AM 69.8 °F - 60.8 °F 73% 30.01 in 10.0 mi South 4.6 mph - N/A   Clear
3:35 AM 69.8 °F - 60.8 °F 73% 30.01 in 10.0 mi South 4.6 mph - N/A   Clear
3:55 AM 69.8 °F - 60.8 °F 73% 30.01 in 10.0 mi South 3.5 mph - N/A   Clear
4:15 AM 68.0 °F - 59.0 °F 73% 30.01 in 10.0 mi Calm Calm - N/A   Clear
4:35 AM 68.0 °F - 59.0 °F 73% 30.02 in 10.0 mi South 3.5 mph - N/A   Clear
4:55 AM 68.0 °F - 60.8 °F 78% 30.02 in 10.0 mi South 6.9 mph - N/A   Clear
5:15 AM 68.0 °F - 59.0 °F 73% 30.01 in 10.0 mi South 5.8 mph - N/A   Clear
5:35 AM 68.0 °F - 59.0 °F 73% 30.02 in 10.0 mi South 4.6 mph - N/A   Clear
5:55 AM 68.0 °F - 59.0 °F 73% 30.02 in 10.0 mi South 4.6 mph - N/A   Clear
6:15 AM 68.0 °F - 59.0 °F 73% 30.02 in 10.0 mi South 3.5 mph - N/A   Clear
6:35 AM 68.0 °F - 59.0 °F 73% 30.02 in 10.0 mi South 3.5 mph - N/A   Clear
6:55 AM 68.0 °F - 59.0 °F 73% 30.03 in 10.0 mi South 3.5 mph - N/A   Clear
7:15 AM 68.0 °F - 60.8 °F 78% 30.03 in 10.0 mi South 4.6 mph - N/A   Clear
7:35 AM 69.8 °F - 60.8 °F 73% 30.03 in 10.0 mi South 5.8 mph - N/A   Clear
7:55 AM 69.8 °F - 60.8 °F 73% 30.03 in 10.0 mi South 4.6 mph - N/A   Clear
8:15 AM 71.6 °F - 60.8 °F 69% 30.04 in 10.0 mi South 4.6 mph - N/A   Clear
8:35 AM 71.6 °F - 60.8 °F 69% 30.03 in 10.0 mi South 4.6 mph - N/A   Clear
8:55 AM 73.4 °F - 60.8 °F 65% 30.03 in 10.0 mi South 5.8 mph - N/A   Clear
9:15 AM 75.2 °F - 62.6 °F 65% 30.03 in 10.0 mi South 9.2 mph - N/A   Clear
9:35 AM 77.0 °F - 62.6 °F 61% 30.02 in 10.0 mi SSW 10.4 mph 17.3 mph N/A   Clear
9:55 AM 78.8 °F - 64.4 °F 61% 30.02 in 10.0 mi SSW 9.2 mph - N/A   Clear
10:15 AM 80.6 °F 82.3 °F 64.4 °F 58% 30.02 in 10.0 mi SSW 11.5 mph 19.6 mph N/A   Clear
10:35 AM 80.6 °F 82.3 °F 64.4 °F 58% 30.01 in 10.0 mi SSW 12.7 mph - N/A   Clear
10:55 AM 84.2 °F 85.6 °F 64.4 °F 51% 30.01 in 10.0 mi South 10.4 mph 20.7 mph N/A   Clear
11:15 AM 84.2 °F 85.6 °F 64.4 °F 51% 30.01 in 10.0 mi SSW 17.3 mph 24.2 mph N/A   Scattered Clouds
11:35 AM 84.2 °F 85.6 °F 64.4 °F 51% 30.00 in 10.0 mi SSW 17.3 mph 23.0 mph N/A   Mostly Cloudy
11:55 AM 86.0 °F 87.3 °F 64.4 °F 48% 29.98 in 10.0 mi South 12.7 mph 23.0 mph N/A   Mostly Cloudy
12:15 PM 84.2 °F 85.0 °F 62.6 °F 48% 29.97 in 10.0 mi SSW 17.3 mph 26.5 mph N/A Thunderstorm Mostly Cloudy
12:35 PM 84.2 °F 85.0 °F 62.6 °F 48% 29.98 in 10.0 mi SSW 12.7 mph 24.2 mph N/A   Mostly Cloudy
12:55 PM 84.2 °F 85.0 °F 62.6 °F 48% 29.96 in 10.0 mi SSW 15.0 mph 28.8 mph N/A   Mostly Cloudy
1:15 PM 84.2 °F 85.0 °F 62.6 °F 48% 29.97 in 10.0 mi SSW 16.1 mph 28.8 mph N/A Thunderstorm Thunderstorm
1:35 PM 82.4 °F 83.4 °F 62.6 °F 51% 29.97 in 10.0 mi SW 16.1 mph 24.2 mph N/A Thunderstorm Mostly Cloudy
1:55 PM 82.4 °F 83.4 °F 62.6 °F 51% 29.98 in 10.0 mi West 15.0 mph 26.5 mph N/A   Mostly Cloudy
2:15 PM 82.4 °F 83.9 °F 64.4 °F 54% 29.94 in 10.0 mi SSW 18.4 mph 24.2 mph N/A   Scattered Clouds
2:35 PM 84.2 °F 85.0 °F 62.6 °F 48% 29.93 in 10.0 mi SW 11.5 mph 20.7 mph N/A Thunderstorm Clear
2:55 PM 86.0 °F 86.6 °F 62.6 °F 45% 29.94 in 10.0 mi SW 13.8 mph 23.0 mph N/A   Clear
3:15 PM 86.0 °F 86.6 °F 62.6 °F 45% 29.93 in 10.0 mi SW 15.0 mph 25.3 mph N/A   Clear
3:35 PM 82.4 °F 83.9 °F 64.4 °F 54% 29.94 in 10.0 mi SSW 16.1 mph 23.0 mph N/A   Scattered Clouds
3:55 PM 82.4 °F 83.9 °F 64.4 °F 54% 29.93 in 10.0 mi South 17.3 mph 21.9 mph N/A   Mostly Cloudy
4:15 PM 80.6 °F 82.3 °F 64.4 °F 58% 29.94 in 10.0 mi SSW 12.7 mph 24.2 mph N/A   Overcast
4:35 PM 80.6 °F 82.3 °F 64.4 °F 58% 29.94 in 10.0 mi SW 13.8 mph 21.9 mph N/A   Overcast
4:55 PM 80.6 °F 82.7 °F 66.2 °F 61% 29.94 in 10.0 mi SSW 15.0 mph 24.2 mph N/A   Mostly Cloudy
5:15 PM 80.6 °F 82.7 °F 66.2 °F 61% 29.94 in 10.0 mi SW 13.8 mph 18.4 mph N/A   Scattered Clouds
5:35 PM 80.6 °F 82.7 °F 66.2 °F 61% 29.94 in 10.0 mi SSW 13.8 mph 24.2 mph N/A   Clear
5:55 PM 80.6 °F 82.7 °F 66.2 °F 61% 29.95 in 10.0 mi SW 12.7 mph 19.6 mph N/A   Clear
6:15 PM 80.6 °F 82.7 °F 66.2 °F 61% 29.95 in 10.0 mi SSW 10.4 mph 18.4 mph N/A   Clear
6:35 PM 80.6 °F 82.3 °F 64.4 °F 58% 29.95 in 10.0 mi SW 10.4 mph 20.7 mph N/A   Scattered Clouds
6:55 PM 80.6 °F 82.3 °F 64.4 °F 58% 29.96 in 10.0 mi SW 9.2 mph - N/A   Mostly Cloudy
7:15 PM 78.8 °F - 64.4 °F 61% 29.96 in 10.0 mi SW 6.9 mph - N/A   Mostly Cloudy
7:35 PM 78.8 °F - 64.4 °F 61% 29.97 in 10.0 mi SW 4.6 mph - N/A   Overcast
7:55 PM 78.8 °F - 64.4 °F 61% 29.97 in 10.0 mi Calm Calm - N/A   Overcast
8:15 PM 77.0 °F - 64.4 °F 65% 29.98 in 10.0 mi SSW 3.5 mph - N/A   Overcast
8:35 PM 77.0 °F - 64.4 °F 65% 29.99 in 7.0 mi SW 3.5 mph - N/A   Overcast
8:55 PM 77.0 °F - 64.4 °F 65% 30.00 in 10.0 mi SSW 3.5 mph - N/A   Overcast
9:15 PM 73.4 °F - 64.4 °F 73% 30.00 in 10.0 mi SSW 3.5 mph - N/A   Scattered Clouds
9:35 PM 75.2 °F - 64.4 °F 69% 30.01 in 7.0 mi Calm Calm - N/A   Clear
9:55 PM 71.6 °F - 62.6 °F 73% 30.00 in 7.0 mi Calm Calm - N/A   Clear
10:15 PM 71.6 °F - 64.4 °F 78% 30.00 in 10.0 mi Calm Calm - N/A   Clear
10:35 PM 69.8 °F - 62.6 °F 78% 29.99 in 7.0 mi Calm Calm - N/A   Clear
10:55 PM 68.0 °F - 62.6 °F 83% 29.98 in 10.0 mi Calm Calm - N/A   Clear
11:15 PM 68.0 °F - 60.8 °F 78% 29.98 in 10.0 mi Calm Calm - N/A   Clear
11:35 PM 66.2 °F - 60.8 °F 83% 29.98 in 10.0 mi Calm Calm - N/A   Clear
11:55 PM 66.2 °F - 60.8 °F 83% 29.98 in 10.0 mi Calm Calm - N/A   Clear